User: anonymous   Login
Location: Dittelbrunn
(50.0738°N, 10.2196°E)
Time: 02:59:33
(UTC+00:00)
Language:

Cosmos 1898 Rocket - Orbit

View from above orbital plane
View from above orbital plane
View from above satellite
View from above satellite

Ground track
Ground track

The orbit data is extracted from the following two-line orbital elements,

1 18586U 87098B   20329.52927241  .00000164  00000-0  64422-4 0  9991
2 18586  74.0046 141.6494 0022106 261.9038  97.9607 14.36920495727805
Epoch (UTC): 24 November 2020 12:42:09
Eccentricity: 0.0022106
inclination: 74.0046°
perigee height: 753 km
apogee height: 784 km
right ascension of ascending node: 141.6494°
argument of perigee: 261.9038°
revolutions per day: 14.36920495
mean anomaly at epoch: 97.9607°
orbit number at epoch: 72780

The dashed part of the orbit path shows where the satellite is in the earth's shadow,  

DLR